Location: Arleux
(50.3632°N, 2.8721°E)
Time: 12:59:54
(UTC+00:00)

H-2A R/B - Pass Details

Date: 15 December 2019
Orbit: 501 x 541 km, 97.3° (Epoch: 19 January)

Event Time Altitude Azimuth Distance (km) Brightness Sun altitude
Rises 06:14:58 0° 13° (NNE) 2,631 6.2 -12.9°
Reaches altitude 10° 06:17:03 10° 13° (NNE) 1,745 5.3 -12.6°
Maximum altitude 06:20:49 88° 104° (ESE) 524 2.7 -12.1°
Drops below altitude 10° 06:24:36 10° 194° (SSW) 1,753 5.5 -11.5°
Sets 06:26:43 0° 194° (SSW) 2,643 6.4 -11.2°
